FW5487 Weather Reports


Display with metric or nautical units.
time (UTC)temp
F
wind
direction
speed
MPH
gust
MPH
rain 1hr
in
rain 24hr
in
rain mn
in
humidity
%
barometer
mb
20260901040704 87 148 5.0 6.0 0.00 0.00 0.00 49 1000.0
20260901040204 87 151 5.0 7.0 0.00 0.00 0.00 47 1000.0
20260901035704 88 135 5.0 7.0 0.00 0.00 0.00 45 1000.0
20260901034704 89 165 7.0 12.0 0.00 0.00 0.00 43 1000.0
20260901034203 89 179 7.0 9.0 0.00 0.00 0.00 43 1000.0
20260901033703 89 174 6.0 12.0 0.00 0.00 0.00 43 1000.0
20260901033204 89 182 7.0 10.0 0.00 0.00 0.00 43 1000.0
20260901032203 88 169 6.0 8.0 0.00 0.00 0.00 46 1000.0
20260901031704 88 170 5.0 7.0 0.00 0.00 0.00 46 1000.0
20260901031204 89 129 6.0 8.0 0.00 0.00 0.00 44 1000.0
20260901030704 90 146 6.0 8.0 0.00 0.00 0.00 41 1000.0
20260901030204 91 168 5.0 8.0 0.00 0.00 0.00 40 1000.0
20260901025703 91 175 6.0 8.0 0.00 0.00 0.00 40 1000.0
20260901025203 91 177 6.0 9.0 0.00 0.00 0.00 39 1000.0
20260901024703 91 169 6.0 8.0 0.00 0.00 0.00 39 1000.0
20260901024205 92 169 7.0 9.0 0.00 0.00 0.00 39 1000.0
20260901023703 92 172 7.0 10.0 0.00 0.00 0.00 39 1000.0
20260901022704 92 175 6.0 9.0 0.00 0.00 0.00 38 1000.0
20260901022204 92 168 6.0 8.0 0.00 0.00 0.00 38 1000.0
20260901021204 92 182 6.0 8.0 0.00 0.00 0.00 37 1000.0
20260901020704 92 174 6.0 9.0 0.00 0.00 0.00 37 1000.0
20260901015704 93 174 7.0 9.0 0.00 0.00 0.00 36 1000.0
20260901015204 93 179 6.0 9.0 0.00 0.00 0.00 36 1000.0
20260901014704 93 142 6.0 8.0 0.00 0.00 0.00 36 1000.0
20260901013704 93 169 5.0 8.0 0.00 0.00 0.00 35 1000.0
20260901013204 93 176 6.0 9.0 0.00 0.00 0.00 35 1000.0
20260901012204 93 169 6.0 8.0 0.00 0.00 0.00 34 1000.0
20260901011704 94 169 5.0 7.0 0.00 0.00 0.00 33 1000.0
20260901010703 94 164 5.0 8.0 0.00 0.00 0.00 32 1000.0
20260901010203 94 167 6.0 8.0 0.00 0.00 0.00 32 1000.0
20260901005704 95 169 5.0 8.0 0.00 0.00 0.00 31 1000.0
20260901005204 95 178 3.0 7.0 0.00 0.00 0.00 30 1000.0
20260901004704 95 182 3.0 7.0 0.00 0.00 0.00 30 1000.0
20260901004204 96 177 5.0 8.0 0.00 0.00 0.00 29 1000.0
20260901003204 96 152 6.0 8.0 0.00 0.00 0.00 28 1000.0
20260901002703 97 159 5.0 8.0 0.00 0.00 0.00 28 1000.0
20260901002204 97 168 5.0 6.0 0.00 0.00 0.00 27 1000.0
20260901001703 97 164 5.0 7.0 0.00 0.00 0.00 27 1000.0
20260901001203 97 180 6.0 8.0 0.00 0.00 0.00 26 1000.0
20260901000703 98 175 5.0 8.0 0.00 0.00 0.00 26 1000.0
20260901000204 98 172 6.0 12.0 0.00 0.00 0.00 26 1000.0
20260831235704 98 172 6.0 9.0 0.00 0.00 0.00 26 1000.0
20260831235204 98 179 8.0 13.0 0.00 0.00 0.00 26 1000.0
20260831234704 99 168 5.0 9.0 0.00 0.00 0.00 26 1000.0
20260831234204 99 181 6.0 9.0 0.00 0.00 0.00 26 1000.0
20260831233703 99 176 7.0 12.0 0.00 0.00 0.00 26 1000.0
20260831233204 99 149 7.0 13.0 0.00 0.00 0.00 26 1000.0
20260831232704 100 146 7.0 12.0 0.00 0.00 0.00 26 1000.0
20260831232204 100 158 7.0 10.0 0.00 0.00 0.00 26 1000.0
20260831231203 100 181 7.0 13.0 0.00 0.00 0.00 26 1000.0
20260831225704 101 191 5.0 12.0 0.00 0.00 0.00 25 1000.0
20260831225203 101 200 7.0 13.0 0.00 0.00 0.00 24 1000.0
20260831224704 101 220 7.0 13.0 0.00 0.00 0.00 24 1000.0
20260831224204 101 239 3.0 9.0 0.00 0.00 0.00 24 1000.0
20260831223703 101 195 6.0 9.0 0.00 0.00 0.00 24 1000.0
20260831223204 101 243 4.0 9.0 0.00 0.00 0.00 23 1000.0
20260831222704 101 197 8.0 12.0 0.00 0.00 0.00 23 1000.0
20260831222203 101 192 7.0 14.0 0.00 0.00 0.00 22 1000.0
20260831221703 102 194 6.0 13.0 0.00 0.00 0.00 23 1000.0
20260831221204 102 234 5.0 9.0 0.00 0.00 0.00 23 1000.0
20260831220204 102 208 4.0 12.0 0.00 0.00 0.00 23 1000.0
20260831215704 101 187 7.0 12.0 0.00 0.00 0.00 22 1000.0
20260831215204 102 208 3.0 10.0 0.00 0.00 0.00 22 1000.0
20260831213704 101 201 9.0 15.0 0.00 0.00 0.00 23 1000.0
20260831213204 101 188 10.0 16.0 0.00 0.00 0.00 23 1000.0
20260831212703 101 199 10.0 15.0 0.00 0.00 0.00 23 1000.0
20260831212204 102 232 6.0 15.0 0.00 0.00 0.00 23 1000.0
20260831211704 101 191 10.0 16.0 0.00 0.00 0.00 23 1000.0
20260831211204 102 228 3.0 9.0 0.00 0.00 0.00 23 1000.0
20260831210703 101 219 7.0 12.0 0.00 0.00 0.00 23 1000.0
20260831210203 101 176 9.0 15.0 0.00 0.00 0.00 23 1000.0
20260831205704 101 187 9.0 16.0 0.00 0.00 0.00 23 1000.0
20260831203204 101 159 9.0 14.0 0.00 0.00 0.00 24 1000.0
20260831202704 101 168 9.0 17.0 0.00 0.00 0.00 24 1000.0
20260831202203 101 188 6.0 12.0 0.00 0.00 0.00 24 1000.0
20260831201703 101 172 6.0 13.0 0.00 0.00 0.00 24 1000.0
20260831201203 101 132 10.0 16.0 0.00 0.00 0.00 23 1000.0
20260831200703 102 150 3.0 10.0 0.00 0.00 0.00 23 1000.0
20260831200204 102 178 1.0 10.0 0.00 0.00 0.00 24 1000.0
20260831195704 102 232 6.0 13.0 0.00 0.00 0.00 25 1000.0
20260831195204 101 178 6.0 13.0 0.00 0.00 0.00 23 1000.0
20260831194704 101 194 7.0 17.0 0.00 0.00 0.00 24 1000.0
20260831194204 101 205 2.0 8.0 0.00 0.00 0.00 26 1000.0
20260831193703 100 176 7.0 14.0 0.00 0.00 0.00 25 1000.0
20260831193204 101 199 7.0 14.0 0.00 0.00 0.00 25 1000.0
20260831192704 101 281 6.0 10.0 0.00 0.00 0.00 25 1000.0
20260831192203 101 198 6.0 8.0 0.00 0.00 0.00 26 1000.0
20260831191204 100 196 8.0 14.0 0.00 0.00 0.00 27 1000.0
20260831190703 101 230 6.0 13.0 0.00 0.00 0.00 27 1000.0
20260831190204 101 255 4.0 10.0 0.00 0.00 0.00 27 1000.0
20260831185204 100 186 4.0 9.0 0.00 0.00 0.00 28 1000.0
20260831184704 100 212 5.0 13.0 0.00 0.00 0.00 27 1000.0
20260831184203 101 236 5.0 10.0 0.00 0.00 0.00 27 1000.0
20260831183704 100 218 8.0 13.0 0.00 0.00 0.00 27 1000.0
20260831183204 101 256 3.0 7.0 0.00 0.00 0.00 28 1000.0
20260831182704 100 223 5.0 10.0 0.00 0.00 0.00 28 1000.0
20260831182204 100 227 7.0 13.0 0.00 0.00 0.00 28 1000.0
20260831181204 99 193 6.0 9.0 0.00 0.00 0.00 30 1000.0
20260831180703 99 215 5.0 12.0 0.00 0.00 0.00 30 1000.0
20260831175704 98 191 8.0 13.0 0.00 0.00 0.00 32 1000.0
20260831174704 97 200 9.0 17.0 0.00 0.00 0.00 33 1000.0
20260831174204 97 201 9.0 14.0 0.00 0.00 0.00 32 1000.0
20260831172703 96 188 9.0 15.0 0.00 0.00 0.00 34 1000.0
20260831172204 96 222 8.0 13.0 0.00 0.00 0.00 34 1000.0
20260831171704 96 204 8.0 16.0 0.00 0.00 0.00 35 1000.0
20260831171204 96 190 7.0 15.0 0.00 0.00 0.00 34 1000.0
20260831170703 96 196 7.0 13.0 0.00 0.00 0.00 36 1000.0
20260831170204 95 186 8.0 14.0 0.00 0.00 0.00 36 1000.0
20260831165703 95 199 9.0 15.0 0.00 0.00 0.00 37 1000.0
20260831165205 95 202 10.0 18.0 0.00 0.00 0.00 37 1000.0
20260831164703 95 211 9.0 14.0 0.00 0.00 0.00 38 1000.0
20260831164204 94 198 9.0 17.0 0.00 0.00 0.00 38 1000.0
20260831163704 94 208 9.0 15.0 0.00 0.00 0.00 40 1000.0
20260831163203 93 209 10.0 17.0 0.00 0.00 0.00 40 1000.0
20260831162703 93 192 11.0 18.0 0.00 0.00 0.00 40 1000.0
20260831162204 94 191 7.0 16.0 0.00 0.00 0.00 40 1000.0
20260831161704 93 203 7.0 18.0 0.00 0.00 0.00 41 1000.0
20260831161203 93 199 9.0 15.0 0.00 0.00 0.00 40 1000.0
20260831160203 93 210 9.0 15.0 0.00 0.00 0.00 41 1000.0
20260831155704 92 195 11.0 17.0 0.00 0.00 0.00 41 1000.0
20260831155204 92 212 9.0 14.0 0.00 0.00 0.00 42 1000.0
20260831154204 92 206 7.0 17.0 0.00 0.00 0.00 44 1000.0
20260831153203 91 218 9.0 13.0 0.00 0.00 0.00 45 1000.0
20260831152704 90 207 9.0 17.0 0.00 0.00 0.00 46 1000.0
20260831152204 90 222 7.0 14.0 0.00 0.00 0.00 47 1000.0
20260831151703 89 202 11.0 16.0 0.00 0.00 0.00 47 1000.0
20260831151203 89 207 7.0 13.0 0.00 0.00 0.00 48 1000.0
20260831150704 88 193 10.0 17.0 0.00 0.00 0.00 48 1000.0
20260831145703 87 185 12.0 16.0 0.00 0.00 0.00 49 1000.0
20260831144704 87 210 7.0 12.0 0.00 0.00 0.00 50 1000.0
20260831144203 87 205 7.0 12.0 0.00 0.00 0.00 51 1000.0
20260831143703 86 189 10.0 15.0 0.00 0.00 0.00 51 1000.0
20260831143204 85 194 10.0 15.0 0.00 0.00 0.00 52 1000.0
20260831142203 85 192 11.0 15.0 0.00 0.00 0.00 52 1000.0
20260831141703 84 184 10.0 15.0 0.00 0.00 0.00 53 1000.0
20260831141204 84 179 12.0 16.0 0.00 0.00 0.00 53 1000.0
20260831140704 84 189 9.0 16.0 0.00 0.00 0.00 53 1000.0
20260831140204 84 184 9.0 14.0 0.00 0.00 0.00 53 1000.0
20260831135704 83 185 11.0 18.0 0.00 0.00 0.00 53 1000.0
20260831134703 83 176 10.0 16.0 0.00 0.00 0.00 54 1000.0
20260831133704 82 179 13.0 17.0 0.00 0.00 0.00 55 1000.0
20260831133204 82 186 11.0 18.0 0.00 0.00 0.00 55 1000.0
20260831132204 82 178 9.0 14.0 0.00 0.00 0.00 56 1000.0
20260831131703 81 191 10.0 13.0 0.00 0.00 0.00 57 1000.0
20260831130704 80 175 7.0 13.0 0.00 0.00 0.00 60 1000.0
20260831125704 79 177 7.0 12.0 0.00 0.00 0.00 65 1000.0
20260831125203 78 153 5.0 8.0 0.00 0.00 0.00 66 1000.0
20260831124704 78 175 3.0 6.0 0.00 0.00 0.00 65 1000.0
20260831124204 78 175 5.0 7.0 0.00 0.00 0.00 64 1000.0
20260831123703 78 180 3.0 6.0 0.00 0.00 0.00 66 1000.0
20260831122704 76 161 3.0 5.0 0.00 0.00 0.00 70 1000.0
20260831122203 76 156 2.0 5.0 0.00 0.00 0.00 73 1000.0
20260831121704 75 141 3.0 5.0 0.00 0.00 0.00 74 1000.0
20260831121204 75 154 5.0 6.0 0.00 0.00 0.00 74 1000.0
20260831120704 75 144 5.0 6.0 0.00 0.00 0.00 72 1000.0
20260831120203 75 143 5.0 7.0 0.00 0.00 0.00 70 1000.0
20260831115703 75 134 5.0 7.0 0.00 0.00 0.00 69 1000.0
20260831114704 76 142 5.0 6.0 0.00 0.00 0.00 68 1000.0
20260831114203 76 149 4.0 7.0 0.00 0.00 0.00 67 1000.0
20260831113704 76 143 4.0 6.0 0.00 0.00 0.00 68 1000.0
20260831113204 76 151 4.0 6.0 0.00 0.00 0.00 68 1000.0
20260831112703 76 136 5.0 6.0 0.00 0.00 0.00 67 1000.0
20260831112204 76 133 5.0 6.0 0.00 0.00 0.00 65 1000.0
20260831111704 76 131 5.0 6.0 0.00 0.00 0.00 65 1000.0
20260831111203 76 131 3.0 6.0 0.00 0.00 0.00 65 1000.0
20260831110704 77 126 4.0 5.0 0.00 0.00 0.00 65 1000.0
20260831110204 77 131 5.0 6.0 0.00 0.00 0.00 64 1000.0
20260831105703 77 137 3.0 6.0 0.00 0.00 0.00 63 1000.0
20260831104704 78 143 6.0 8.0 0.00 0.00 0.00 62 1000.0
20260831104204 78 151 5.0 7.0 0.00 0.00 0.00 62 1000.0
20260831103704 77 146 3.0 7.0 0.00 0.00 0.00 63 1000.0
20260831103204 77 139 5.0 8.0 0.00 0.00 0.00 62 1000.0
20260831102204 77 149 5.0 7.0 0.00 0.00 0.00 62 1000.0
20260831101204 77 163 5.0 6.0 0.00 0.00 0.00 64 1000.0
20260831100703 77 146 4.0 6.0 0.00 0.00 0.00 64 1000.0
20260831100204 77 147 3.0 6.0 0.00 0.00 0.00 64 1000.0
20260831095703 78 148 4.0 6.0 0.00 0.00 0.00 63 1000.0
20260831095204 78 140 5.0 6.0 0.00 0.00 0.00 62 1000.0
20260831094703 78 135 5.0 6.0 0.00 0.00 0.00 62 1000.0
20260831094204 78 141 4.0 6.0 0.00 0.00 0.00 61 1000.0
20260831093703 78 137 4.0 6.0 0.00 0.00 0.00 61 1000.0
20260831093205 78 149 3.0 6.0 0.00 0.00 0.00 60 1000.0
20260831092204 79 148 4.0 7.0 0.00 0.00 0.00 60 1000.0
20260831091704 79 153 5.0 7.0 0.00 0.00 0.00 60 1000.0
20260831091204 79 150 5.0 8.0 0.00 0.00 0.00 60 1000.0
20260831090703 79 140 6.0 8.0 0.00 0.00 0.00 59 1000.0
20260831090203 79 170 6.0 8.0 0.00 0.00 0.00 59 1000.0
20260831085703 79 167 5.0 7.0 0.00 0.00 0.00 60 1000.0
20260831085204 79 166 3.0 7.0 0.00 0.00 0.00 60 1000.0
20260831084703 79 170 5.0 6.0 0.00 0.00 0.00 61 1000.0
20260831084204 79 151 5.0 7.0 0.00 0.00 0.00 60 1000.0
20260831083703 79 143 5.0 7.0 0.00 0.00 0.00 60 1000.0
20260831083203 80 174 4.0 7.0 0.00 0.00 0.00 59 1000.0
20260831082704 80 165 5.0 8.0 0.00 0.00 0.00 58 1000.0
20260831081703 80 166 4.0 6.0 0.00 0.00 0.00 58 1000.0
20260831081204 80 167 4.0 7.0 0.00 0.00 0.00 57 1000.0
20260831080203 80 155 5.0 7.0 0.00 0.00 0.00 57 1000.0
20260831075203 80 147 5.0 7.0 0.00 0.00 0.00 58 1000.0
20260831074204 81 159 3.0 8.0 0.00 0.00 0.00 57 1000.0
20260831073703 81 142 3.0 7.0 0.00 0.00 0.00 57 1000.0
20260831073203 81 145 5.0 9.0 0.00 0.00 0.00 56 1000.0
20260831072704 82 144 3.0 9.0 0.00 0.00 0.00 55 1000.0
20260831071703 82 178 4.0 9.0 0.00 0.00 0.00 54 1000.0
20260831071204 82 167 6.0 8.0 0.00 0.00 0.00 54 1000.0
20260831070703 82 165 6.0 15.0 0.00 0.00 0.00 53 1000.0
20260831070203 82 165 6.0 10.0 0.00 0.00 0.00 54 1000.0
20260831065203 83 175 5.0 9.0 0.00 0.00 0.00 54 1000.0
20260831064204 82 176 6.0 12.0 0.00 0.00 0.00 54 1000.0
20260831063703 83 148 6.0 12.0 0.00 0.00 0.00 54 1000.0
20260831063203 83 169 6.0 9.0 0.00 0.00 0.00 54 1000.0
20260831062704 83 142 6.0 9.0 0.00 0.00 0.00 53 1000.0
20260831062204 83 158 7.0 13.0 0.00 0.00 0.00 53 1000.0
20260831061704 83 147 7.0 13.0 0.00 0.00 0.00 53 1000.0
20260831061203 83 169 7.0 12.0 0.00 0.00 0.00 52 1000.0
20260831060703 83 175 7.0 12.0 0.00 0.00 0.00 52 1000.0
20260831060204 84 147 7.0 13.0 0.00 0.00 0.00 52 1000.0
20260831055704 84 111 7.0 13.0 0.00 0.00 0.00 52 1000.0
20260831055204 84 163 7.0 13.0 0.00 0.00 0.00 52 1000.0
20260831054703 84 122 8.0 15.0 0.00 0.00 0.00 52 1000.0
20260831054204 84 161 9.0 14.0 0.00 0.00 0.00 51 1000.0
20260831053704 84 173 9.0 14.0 0.00 0.00 0.00 51 1000.0
20260831053204 84 157 9.0 13.0 0.00 0.00 0.00 51 1000.0
20260831052704 84 154 7.0 12.0 0.00 0.00 0.00 52 1000.0
20260831052204 84 131 5.0 9.0 0.00 0.00 0.00 52 1000.0
20260831051703 84 134 7.0 10.0 0.00 0.00 0.00 51 1000.0
20260831051204 84 172 6.0 8.0 0.00 0.00 0.00 50 1000.0
20260831050703 85 165 5.0 9.0 0.00 0.00 0.00 50 1000.0
20260831050204 85 168 6.0 9.0 0.00 0.00 0.00 49 1000.0
20260831045704 85 168 7.0 10.0 0.00 0.00 0.00 49 1000.0
20260831045204 85 171 7.0 9.0 0.00 0.00 0.00 48 1000.0
20260831044703 85 170 7.0 9.0 0.00 0.00 0.00 48 1000.0
20260831044204 85 170 8.0 12.0 0.00 0.00 0.00 48 1000.0
20260831043704 86 176 7.0 9.0 0.00 0.00 0.00 48 1000.0
20260831043205 86 167 6.0 13.0 0.00 0.00 0.00 47 1000.0
20260831042204 86 174 9.0 13.0 0.00 0.00 0.00 47 1000.0
20260831041203 86 165 6.0 13.0 0.00 0.00 0.00 46 1000.0